Simultaneous Nadir Overpasses (SNOs) Predictions

Prediction of SNOs between LANDSAT-8 and NOAA-19 Satellite Orbit:

Table of predicted SNOs for the next 14.0 days since TLE Epoch: 5/6/2016
Index Date (LANDSAT-8) Time (LANDSAT-8) Lat,Lon (LANDSAT-8) SZA (LANDSAT-8 ) Date (NOAA-19) Time (NOAA-19) Lat,Lon (NOAA-19) SZA (NOAA-19 ) Distance(km) Time Diff (sec)
1 05/06/2016 17:20:47 74.58, -75.82 57.77 05/06/2016 17:20:06 74.56, -75.81 57.75 2.42 41
2 05/06/2016 18:10:16 -74.51, 91.62 122.33 05/06/2016 18:11:10 -74.49, 91.62 122.33 1.60 54
3 05/08/2016 22:54:31 -74.56, 20.70 122.86 05/08/2016 22:54:16 -74.58, 20.66 122.84 2.10 15
4 05/08/2016 23:43:58 74.48,-171.85 57.05 05/08/2016 23:45:11 74.50,-171.85 57.07 1.26 73
5 05/11/2016 03:38:39 -74.97, -49.34 123.00 05/11/2016 03:37:30 -75.04, -51.42 122.98 60.58 69
6 05/11/2016 04:28:13 74.53, 117.21 56.53 05/11/2016 04:28:16 74.53, 117.33 56.54 3.73 3
7 05/13/2016 09:12:27 74.62, 46.37 56.09 05/13/2016 09:11:22 74.62, 46.37 56.07 0.84 65
8 05/13/2016 10:01:56 -74.56,-146.16 124.00 05/13/2016 10:02:26 -74.57,-146.27 123.98 3.59 30
9 05/15/2016 14:46:11 -74.60, 142.88 124.48 05/15/2016 14:45:31 -74.62, 142.86 124.45 3.17 40
10 05/15/2016 15:35:37 74.56, -49.57 55.48 05/15/2016 15:36:27 74.56, -49.69 55.48 3.63 50
11 05/17/2016 20:19:52 74.59,-120.55 55.02 05/17/2016 20:19:32 74.60,-120.53 55.03 1.32 20
12 05/17/2016 21:09:21 -74.53, 46.93 125.06 05/17/2016 21:10:34 -74.49, 47.02 125.09 5.05 73
13 05/20/2016 01:03:56 75.17, 1
